GW1009 Weather Reports


time (UTC)temp
C
wind
direction
speed
KPH
gust
KPH
rain 1hr
cm
rain 24hr
cm
rain mn
cm
humidity
%
barometer
mb
20260510205103 12 292 17.7 29.0 0.00 0.56 0.56 44 1012.9
20260510204507 12 297 17.7 29.0 0.00 0.56 0.56 47 1012.8
20260510204001 12 317 17.7 27.4 0.00 0.56 0.56 46 1012.7
20260510203501 12 313 11.3 27.4 0.00 0.56 0.56 46 1012.7
20260510203001 12 299 16.1 27.4 0.00 0.56 0.56 49 1012.7
20260510202501 12 271 11.3 24.1 0.00 0.56 0.56 46 1012.8
20260510202004 12 313 12.9 25.7 0.00 0.56 0.56 45 1012.7
20260510201603 12 311 12.9 25.7 0.00 0.56 0.56 47 1012.7
20260510201100 12 304 9.7 30.6 0.00 0.56 0.56 47 1012.7
20260510200602 12 294 14.5 29.0 0.00 0.56 0.56 45 1012.8
20260510200100 12 298 14.5 24.1 0.00 0.56 0.56 45 1012.8
20260510195600 12 292 6.4 25.7 0.00 0.56 0.56 46 1012.8
20260510195059 12 282 9.7 33.8 0.00 0.56 0.56 46 1012.8
20260510194610 12 273 19.3 33.8 0.00 0.56 0.56 48 1012.8
20260510194059 12 321 16.1 27.4 0.00 0.56 0.56 46 1012.9
20260510194001 12 333 17.7 27.4 0.00 0.56 0.56 47 1012.9
20260510193558 12 304 19.3 27.4 0.00 0.56 0.56 49 1012.9
20260510193104 12 317 12.9 27.4 0.00 0.56 0.56 51 1012.9
20260510192558 12 310 11.3 25.7 0.00 0.56 0.56 51 1012.8
20260510192058 12 300 14.5 29.0 0.00 0.56 0.56 49 1012.9
20260510191600 12 311 16.1 32.2 0.00 0.56 0.56 50 1012.8
20260510191057 12 302 22.5 32.2 0.00 0.56 0.56 45 1012.8
20260510190556 12 320 11.3 25.7 0.00 0.56 0.56 49 1012.8
20260510190107 12 309 14.5 32.2 0.00 0.56 0.56 50 1012.7
20260510185556 12 318 17.7 32.2 0.00 0.56 0.56 50 1012.7
20260510185056 12 303 16.1 24.1 0.00 0.56 0.56 50 1012.7
20260510184607 12 330 12.9 24.1 0.00 0.56 0.56 53 1012.8
20260510184057 12 302 19.3 25.7 0.00 0.56 0.56 50 1012.8
20260510183555 12 303 16.1 29.0 0.00 0.56 0.56 51 1012.6
20260510183109 13 340 17.7 29.0 0.00 0.56 0.56 52 1012.7
20260510182554 13 314 11.3 24.1 0.00 0.56 0.56 47 1012.6
20260510182053 13 281 9.7 24.1 0.00 0.56 0.56 48 1012.7
20260510181613 12 310 14.5 24.1 0.00 0.56 0.56 50 1012.6
20260510181052 12 311 12.9 24.1 0.00 0.56 0.56 50 1012.6
20260510180552 13 308 8.0 20.9 0.00 0.56 0.56 51 1012.6
20260510180055 12 307 9.7 22.5 0.00 0.56 0.56 47 1012.6
20260510175549 12 303 9.7 22.5 0.00 0.56 0.56 47 1012.6
20260510175049 12 325 9.7 24.1 0.00 0.56 0.56 46 1012.6
20260510174603 12 305 14.5 24.1 0.00 0.56 0.56 45 1012.6
20260510174049 12 298 8.0 25.7 0.00 0.56 0.56 49 1012.7
20260510173551 12 288 11.3 25.7 0.00 0.56 0.56 46 1012.7
20260510173054 12 322 11.3 24.1 0.00 0.56 0.56 50 1012.7
20260510172549 12 284 12.9 24.1 0.00 0.56 0.56 45 1012.7
20260510172049 12 280 16.1 24.1 0.00 0.56 0.56 47 1012.6
20260510171614 12 304 12.9 27.4 0.00 0.56 0.56 47 1012.7
20260510171047 12 288 16.1 27.4 0.00 0.56 0.56 47 1012.6
20260510170550 11 313 14.5 27.4 0.00 0.56 0.56 42 1012.5
20260510170049 11 316 17.7 27.4 0.00 0.56 0.56 47 1012.5
20260510165544 11 277 12.9 25.7 0.00 0.56 0.56 47 1012.6
20260510165044 12 294 12.9 29.0 0.00 0.56 0.56 51 1012.5
20260510164552 12 315 17.7 29.0 0.00 0.56 0.56 50 1012.5
20260510164045 12 304 12.9 25.7 0.00 0.56 0.56 50 1012.4
20260510163543 12 289 11.3 25.7 0.00 0.56 0.56 51 1012.4
20260510163051 12 295 6.4 22.5 0.00 0.56 0.56 50 1012.6
20260510162541 11 284 8.0 22.5 0.00 0.56 0.56 48 1012.6
20260510162039 11 293 8.0 17.7 0.00 0.56 0.56 54 1012.6
20260510161537 11 304 11.3 19.3 0.00 0.56 0.56 58 1012.6
20260510161037 11 300 9.7 20.9 0.00 0.56 0.56 58 1012.6
20260510160536 11 279 11.3 22.5 0.00 0.56 0.56 55 1012.6
20260510160039 10 297 11.3 22.5 0.00 0.56 0.56 57 1012.7
20260510155532 10 326 8.0 12.9 0.00 0.58 0.56 58 1012.7
20260510155032 10 318 6.4 12.9 0.00 0.58 0.56 58 1012.8
20260510154534 10 305 3.2 16.1 0.00 0.58 0.56 63 1012.8
20260510154033 10 321 6.4 17.7 0.00 0.58 0.56 60 1012.8
20260510153530 10 325 9.7 17.7 0.00 0.58 0.56 61 1012.7
20260510153038 10 314 3.2 11.3 0.00 0.58 0.56 69 1012.6
20260510152528 10 202 4.8 16.1 0.00 0.58 0.56 68 1012.7
20260510152028 10 309 4.8 16.1 0.00 0.58 0.56 73 1012.7
20260510151528 9 311 9.7 14.5 0.00 0.58 0.56 73 1012.5
20260510151025 8 322 3.2 11.3 0.00 0.58 0.56 76 1012.4
20260510150523 8 286 4.8 11.3 0.00 0.58 0.56 76 1012.4
20260510150022 8 278 3.2 16.1 0.00 0.58 0.56 76 1012.3
20260510145522 8 302 9.7 16.1 0.00 0.69 0.56 75 1012.4
20260510145021 8 306 4.8 12.9 0.00 0.69 0.56 75 1012.3
20260510144523 8 313 4.8 16.1 0.00 0.69 0.56 77 1012.1
20260510144019 8 341 6.4 16.1 0.00 0.69 0.56 79 1011.9
20260510143520 8 330 6.4 16.1 0.00 0.69 0.56 80 1011.8
20260510143016 7 307 4.8 12.9 0.03 0.69 0.56 81 1011.8
20260510142515 7 319 9.7 12.9 0.03 0.69 0.56 81 1011.8
20260510142015 7 304 4.8 8.0 0.03 0.69 0.56 82 1011.8
20260510141514 7 323 4.8 8.0 0.05 0.69 0.56 82 1011.7
20260510141013 7 317 4.8 9.7 0.10 0.69 0.56 84 1011.7
20260510140512 7 314 4.8 14.5 0.13 0.69 0.56 83 1011.8
20260510140011 7 318 8.0 14.5 0.13 0.69 0.56 85 1011.7
20260510135514 7 290 4.8 8.0 0.13 0.76 0.56 85 1011.7
20260510135012 7 304 4.8 14.5 0.13 0.76 0.56 85 1011.6
20260510134510 7 297 6.4 14.5 0.15 0.76 0.56 85 1011.6
20260510134009 7 304 8.0 14.5 0.15 0.76 0.56 86 1011.6
20260510133509 7 309 6.4 14.5 0.15 0.76 0.56 88 1011.6
20260510133008 6 275 3.2 11.3 0.13 0.71 0.53 87 1011.7
20260510132508 6 303 3.2 12.9 0.13 0.71 0.53 87 1011.7
20260510132008 6 293 4.8 19.3 0.13 0.71 0.53 86 1011.7
20260510131507 6 298 9.7 19.3 0.15 0.71 0.51 87 1011.5
20260510131007 7 280 8.0 14.5 0.13 0.64 0.43 87 1011.8
20260510130505 7 289 6.4 16.1 0.20 0.64 0.43 87 1011.6
20260510130005 7 279 6.4 16.1 0.20 0.64 0.43 88 1011.3
20260510125504 7 309 4.8 14.5 0.20 0.69 0.43 89 1011.0
20260510125003 7 275 3.2 8.0 0.18 0.66 0.41 89 1011.2
20260510124503 7 308 4.8 9.7 0.18 0.66 0.41 88 1010.9
20260510124002 7 290 1.6 14.5 0.18 0.66 0.41 89 1010.6
20260510123503 7 293 6.4 19.3 0.18 0.66 0.41 88 1010.5
20260510123001 7 286 11.3 19.3 0.18 0.66 0.41 88 1010.7
20260510122500 7 289 11.3 27.4 0.18 0.66 0.41 87 1010.6
20260510122059 7 316 11.3 27.4 0.18 0.66 0.41 87 1010.6
20260510121558 8 319 16.1 25.7 0.13 0.61 0.36 89 1010.6
20260510121059 8 318 1.6 6.4 0.08 0.56 0.30 90 1010.4
20260510120555 8 205 0.0 3.2 0.00 0.48 0.23 90 1010.1
20260510120054 8 204 0.0 3.2 0.00 0.48 0.23 90 1009.7
20260510115553 8 194 0.0 4.8 0.00 0.51 0.23 90 1009.8
20260510115052 8 194 0.0 4.8 0.00 0.51 0.23 90 1009.6
20260510114606 8 200 0.0 0.0 0.00 0.51 0.23 90 1009.5
20260510114052 8 193 0.0 4.8 0.00 0.51 0.23 90 1009.4
20260510113551 8 193 0.0 4.8 0.00 0.51 0.23 90 1009.4
20260510113057 8 204 1.6 4.8 0.00 0.51 0.23 90 1009.3
20260510112551 8 220 0.0 4.8 0.00 0.51 0.23 90 1009.3
20260510112053 8 221 0.0 4.8 0.00 0.51 0.23 90 1009.2
20260510111551 8 221 1.6 6.4 0.00 0.51 0.23 90 1009.3
20260510111049 8 223 1.6 6.4 0.00 0.51 0.23 90 1009.2
20260510110548 8 194 3.2 9.7 0.00 0.51 0.23 90 1009.1
20260510110054 8 189 4.8 9.7 0.00 0.51 0.23 90 1008.8
20260510105547 8 184 0.0 8.0 0.00 0.51 0.23 90 1008.5
20260510105047 8 229 1.6 8.0 0.00 0.51 0.23 90 1008.7
20260510104549 8 205 1.6 8.0 0.00 0.51 0.23 90 1008.7
20260510104047 8 185 1.6 8.0 0.00 0.51 0.23 90 1008.5
20260510103547 8 186 3.2 8.0 0.00 0.51 0.23 90 1008.4
20260510103052 8 227 0.0 4.8 0.00 0.51 0.23 90 1008.5
20260510102547 8 227 0.0 6.4 0.00 0.51 0.23 90 1008.4
20260510102047 8 210 1.6 8.0 0.00 0.51 0.23 90 1008.3
20260510101559 8 210 1.6 11.3 0.00 0.51 0.23 90 1008.4
20260510101045 8 207 1.6 11.3 0.00 0.51 0.23 90 1008.4
20260510100545 8 196 4.8 16.1 0.03 0.51 0.23 90 1008.2
20260510100051 8 195 8.0 16.1 0.03 0.51 0.23 90 1008.1
20260510095544 8 157 4.8 11.3 0.03 0.51 0.23 91 1008.1
20260510095043 8 194 3.2 8.0 0.03 0.51 0.23 91 1008.1
20260510094550 8 210 3.2 9.7 0.03 0.51 0.23 91 1008.1
20260510094047 8 205 4.8 9.7 0.03 0.51 0.23 91 1008.1
20260510093543 8 198 0.0 3.2 0.03 0.51 0.23 91 1008.0
20260510093043 8 198 0.0 6.4 0.03 0.51 0.23 91 1007.9
20260510092543 8 195 1.6 6.4 0.03 0.51 0.23 91 1007.8
20260510092044 8 205 1.6 4.8 0.03 0.51 0.23 91 1007.7
20260510091542 8 199 1.6 6.4 0.03 0.51 0.23 91 1007.6
20260510091042 8 198 1.6 8.0 0.03 0.51 0.23 91 1007.7
20260510090541 8 188 3.2 8.0 0.00 0.48 0.20 91 1007.5
20260510090041 8 196 3.2 8.0 0.00 0.48 0.20 90 1007.5
20260510085539 8 204 1.6 6.4 0.00 0.48 0.20 90 1007.5
20260510085040 8 234 3.2 6.4 0.00 0.48 0.20 90 1007.4
20260510084539 8 223 0.0 4.8 0.00 0.48 0.20 90 1007.4
20260510084039 8 223 1.6 6.4 0.00 0.48 0.20 90 1007.5
20260510083538 8 223 1.6 6.4 0.00 0.48 0.20 90 1007.3
20260510083039 8 244 1.6 6.4 0.00 0.48 0.20 90 1007.5
20260510082537 8 198 3.2 8.0 0.00 0.48 0.20 90 1007.6
20260510082037 8 207 4.8 9.7 0.00 0.48 0.20 90 1007.5
20260510081541 8 199 4.8 9.7 0.00 0.48 0.20 90 1007.4
20260510081036 8 208 4.8 6.4 0.00 0.48 0.20 89 1007.5
20260510080535 8 217 1.6 4.8 0.00 0.48 0.20 89 1007.5
20260510080050 8 218 0.0 8.0 0.00 0.48 0.20 89 1007.5
20260510075533 8 215 0.0 8.0 0.00 0.48 0.20 89 1007.5
20260510075033 8 221 3.2 9.7 0.00 0.48 0.20 89 1007.3
20260510074532 8 273 3.2 11.3 0.00 0.48 0.20 89 1007.4
20260510074032 8 202 4.8 11.3 0.00 0.48 0.20 89 1007.3
20260510073531 8 217 1.6 9.7 0.00 0.48 0.20 89 1007.2
20260510073040 8 190 4.8 14.5 0.00 0.48 0.20 89 1007.2
20260510072530 8 192 8.0 14.5 0.00 0.48 0.20 89 1007.2
20260510072030 8 201 4.8 12.9 0.00 0.48 0.20 88 1007.3
20260510071529 9 198 4.8 11.3 0.00 0.48 0.20 88 1007.4
20260510071029 9 202 3.2 9.7 0.00 0.48 0.20 88 1007.3
20260510070528 9 187 3.2 9.7 0.00 0.48 0.20 88 1007.2
20260510070040 9 210 1.6 6.4 0.00 0.48 0.20 88 1007.3
20260510065528 9 206 1.6 6.4 0.00 0.48 0.20 88 1007.4
20260510065029 9 219 3.2 11.3 0.00 0.48 0.20 88 1007.4
20260510064527 9 234 4.8 16.1 0.00 0.48 0.20 88 1007.5
20260510064026 9 204 6.4 16.1 0.00 0.48 0.20 88 1007.5
20260510063526 9 222 4.8 16.1 0.00 0.48 0.20 88 1007.5
20260510063033 9 155 4.8 12.9 0.03 0.48 0.20 88 1007.3
20260510062525 9 190 3.2 14.5 0.05 0.48 0.20 88 1007.5
20260510062024 9 179 4.8 12.9 0.05 0.48 0.20 88 1007.5
20260510061523 9 194 3.2 9.7 0.08 0.48 0.20 87 1007.5
20260510061026 9 208 1.6 12.9 0.10 0.48 0.20 87 1007.8
20260510060524 9 206 6.4 12.9 0.13 0.48 0.20 87 1007.8
20260510060035 9 234 1.6 14.5 0.13 0.48 0.20 87 1007.7
20260510055530 9 207 8.0 22.5 0.13 0.48 0.20 87 1007.7
20260510055022 9 178 9.7 22.5 0.13 0.48 0.20 87 1007.6
20260510054523 9 203 6.4 17.7 0.13 0.48 0.20 88 1007.7
20260510054021 9 142 11.3 17.7 0.15 0.48 0.20 88 1007.6
20260510053520 9 136 8.0 14.5 0.18 0.48 0.20 88 1007.8
20260510053019 9 193 6.4 14.5 0.18 0.46 0.18 88 1008.3
20260510052519 9 192 4.8 14.5 0.15 0.43 0.15 88 1008.4
20260510052018 9 182 1.6 6.4 0.13 0.41 0.13 89 1008.5
20260510051517 9 206 1.6 6.4 0.13 0.41 0.13 88 1008.8
20260510051016 10 251 0.0 3.2 0.10 0.38 0.10 88 1008.9
20260510050516 10 251 0.0 4.8 0.08 0.36 0.08 88 1008.8
20260510050018 10 253 0.0 3.2 0.08 0.36 0.08 88 1008.7
20260510045518 10 254 0.0 4.8 0.08 0.36 0.08 88 1008.6
20260510045013 10 255 1.6 4.8 0.08 0.36 0.08 87 1008.6
20260510044513 10 273 0.0 8.0 0.08 0.36 0.08 87 1008.6
20260510044018 10 277 1.6 19.3 0.05 0.33 0.05 87 1008.5
20260510043516 10 286 3.2 19.3 0.03 0.30 0.03 86 1008.5
20260510043010 10 284 9.7 17.7 0.00 0.28 0.00 86 1008.5
20260510042512 10 313 3.2 8.0 0.00 0.28 0.00 86 1008.4
20260510042008 10 274 3.2 9.7 0.00 0.28 0.00 86 1008.1
20260510041508 10 214 1.6 9.7 0.00 0.28 0.00 86 1008.0
20260510041007 10 241 1.6 8.0 0.00 0.28 0.00 86 1007.9
20260510040505 10 264 1.6 9.7 0.00 0.28 0.00 86 1007.8
20260510040010 10 250 1.6 12.9 0.00 0.28 0.00 86 1007.7
20260510035502 10 203 4.8 17.7 0.00 0.28 0.28 86 1007.7
20260510035003 10 260 6.4 17.7 0.00 0.28 0.28 86 1007.4
20260510034502 10 193 8.0 19.3 0.00 0.28 0.28 85 1007.4
20260510034003 10 183 6.4 19.3 0.00 0.28 0.28 85 1007.4
20260510033501 10 184 4.8 16.1 0.00 0.28 0.28 85 1007.3
20260510033002 10 196 4.8 14.5 0.00 0.28 0.28 85 1007.3
20260510032502 10 173 6.4 14.5 0.00 0.28 0.28 84 1007.2
20260510032003 10 191 4.8 16.1 0.00 0.28 0.28 84 1007.4
20260510031501 10 170 4.8 14.5 0.00 0.28 0.28 84 1007.3
20260510031001 10 171 3.2 11.3 0.00 0.28 0.28 84 1007.5
20260510030500 10 206 0.0 19.3 0.00 0.28 0.28 84 1007.5
20260510025600 10 212 3.2 11.3 0.00 0.28 0.28 84 1007.6
20260510025102 10 199 6.4 11.3 0.00 0.28 0.28 84 1007.5
20260510024602 10 155 4.8 16.1 0.00 0.28 0.28 84 1007.2
20260510024100 10 221 9.7 16.1 0.00 0.28 0.28 84 1007.1
20260510023559 10 156 6.4 14.5 0.00 0.28 0.28 84 1007.1
20260510023058 10 166 8.0 19.3 0.00 0.28 0.28 84 1007.1
20260510022559 10 167 11.3 19.3 0.00 0.28 0.28 84 1007.1
20260510022100 10 142 9.7 19.3 0.00 0.28 0.28 85 1007.0
20260510021646 10 145 4.8 12.9 0.00 0.28 0.28 85 1007.1
20260510021058 10 184 6.4 14.5 0.00 0.28 0.28 85 1007.1
20260510020557 10 166 6.4 12.9 0.00 0.28 0.28 85 1007.0
20260510020100 10 142 6.4 14.5 0.00 0.28 0.28 85 1007.1
20260510015557 10 150 8.0 14.5 0.00 0.28 0.28 85 1007.2
20260510015058 10 148 4.8 11.3 0.00 0.28 0.28 86 1007.5
20260510014600 10 150 3.2 11.3 0.00 0.28 0.28 86 1007.4
20260510014056 10 142 6.4 11.3 0.00 0.28 0.28 86 1007.3
20260510013556 10 157 3.2 14.5 0.00 0.28 0.28 86 1007.3
20260510013102 10 142 6.4 14.5 0.00 0.28 0.28 86 1007.1
20260510012556 10 154 4.8 9.7 0.00 0.28 0.28 86 1007.0
20260510012055 10 133 4.8 8.0 0.00 0.28 0.28 85 1006.9
20260510011555 10 150 4.8 11.3 0.00 0.28 0.28 85 1006.9
20260510011054 10 140 4.8 11.3 0.00 0.28 0.28 85 1007.0
20260510010554 10 147 4.8 11.3 0.00 0.28 0.28 85 1007.0
20260510010059 10 138 4.8 11.3 0.00 0.28 0.28 85 1007.1
20260510005554 10 169 3.2 12.9 0.00 0.28 0.28 85 1007.1
20260510005054 10 169 6.4 19.3 0.00 0.28 0.28 85 1006.9
20260510004554 10 132 6.4 19.3 0.00 0.28 0.28 85 1006.9
20260510004054 10 130 6.4 14.5 0.00 0.28 0.28 85 1006.7
20260510003554 10 126 4.8 14.5 0.00 0.28 0.28 85 1006.7
20260510003054 10 146 3.2 11.3 0.00 0.28 0.28 85 1006.7
20260510002557 10 146 4.8 11.3 0.00 0.28 0.28 85 1006.6
20260510002053 10 136 4.8 12.9 0.00 0.28 0.28 85 1006.6
20260510001553 10 156 6.4 12.9 0.00 0.28 0.28 85 1006.7
20260510001053 10 160 4.8 19.3 0.00 0.28 0.28 85 1006.5
20260510000556 10 188 8.0 19.3 0.00 0.28 0.28 85 1006.3
20260510000053 10 155 9.7 16.1 0.00 0.28 0.28 85 1006.4
20260509235552 10 134 6.4 12.9 0.00 0.28 0.28 85 1006.6
20260509235053 10 142 6.4 11.3 0.00 0.28 0.28 85 1006.7
20260509234552 10 193 4.8 11.3 0.00 0.28 0.28 85 1006.8
20260509234051 10 183 4.8 16.1 0.00 0.28 0.28 85 1006.7
20260509233551 10 178 8.0 16.1 0.00 0.28 0.28 84 1006.6
20260509233051 10 169 4.8 9.7 0.00 0.28 0.28 85 1006.6
20260509232551 10 158 3.2 12.9 0.00 0.28 0.28 85 1006.6
20260509232051 10 202 6.4 16.1 0.00 0.28 0.28 84 1006.7
20260509231553 10 180 8.0 16.1 0.00 0.28 0.28 84 1006.6
20260509231050 10 202 6.4 12.9 0.00 0.28 0.28 84 1006.7
20260509230552 10 206 4.8 12.9 0.00 0.28 0.28 84 1006.6
20260509230053 10 207 3.2 16.1 0.00 0.28 0.28 84 1006.6
20260509225550 10 179 6.4 17.7 0.00 0.28 0.28 84 1006.5
20260509225049 10 205 3.2 17.7 0.00 0.28 0.28 84 1006.5
20260509224550 10 188 9.7 16.1 0.00 0.28 0.28 84 1006.4
20260509224050 10 174 3.2 16.1 0.00 0.28 0.28 84 1006.4
20260509223550 10 190 6.4 16.1 0.00 0.28 0.28 84 1006.3
20260509223053 10 225 8.0 17.7 0.00 0.28 0.28 84 1006.3
20260509222550 10 211 8.0 17.7 0.00 0.28 0.28 84 1006.3
20260509222049 10 209 3.2 22.5 0.00 0.28 0.28 84 1006.5
20260509221549 10 182 8.0 22.5 0.00 0.28 0.28 84 1006.4
20260509221048 10 189 6.4 25.7 0.00 0.28 0.28 84 1006.4
20260509220547 10 186 11.3 25.7 0.00 0.28 0.28 84 1006.4
20260509220050 10 194 6.4 17.7 0.00 0.28 0.28 84 1006.4
20260509215546 10 232 6.4 16.1 0.00 0.28 0.28 84 1006.5
20260509215047 10 182 11.3 22.5 0.00 0.28 0.28 84 1006.4
20260509214547 10 183 8.0 17.7 0.00 0.28 0.28 84 1006.5
20260509214046 10 188 6.4 19.3 0.00 0.28 0.28 84 1006.5
20260509213546 10 180 4.8 19.3 0.00 0.28 0.28 84 1006.5
20260509213102 10 222 9.7 16.1 0.00 0.28 0.28 84 1006.4
20260509212544 10 191 6.4 16.1 0.00 0.28 0.28 84 1006.5
20260509212042 10 150 6.4 16.1 0.00 0.28 0.28 85 1006.6
20260509211542 10 213 4.8 16.1 0.00 0.28 0.28 85 1006.6
20260509211042 10 194 4.8 20.9 0.00 0.28 0.28 85 1006.6
20260509210543 10 209 9.7 20.9 0.00 0.28 0.28 85 1006.7
20260509210046 10 214 6.4 17.7 0.00 0.28 0.28 85 1006.8
20260509205544 10 142 8.0 17.7 0.00 0.28 0.28 85 1006.8